| time (UTC) | temp F | wind direction | speed knots | gust knots | rain 1hr in | rain 24hr in | rain mn in | humidity % | barometer mb |
| 20260503224223 | 63 | 313 | 3.5 | 5.2 | 0.00 | 0.00 | 0.00 | 38 | 1007.4 |
| 20260503223614 | 63 | 246 | 1.7 | 2.6 | 0.00 | 0.00 | 0.00 | 39 | 1007.4 |
| 20260503223014 | 63 | 266 | 2.6 | 3.5 | 0.00 | 0.00 | 0.00 | 37 | 1007.4 |
| 20260503222422 | 63 | 293 | 0.9 | 1.7 | 0.00 | 0.00 | 0.00 | 41 | 1007.4 |
| 20260503221820 | 63 | 290 | 1.7 | 1.7 | 0.00 | 0.00 | 0.00 | 35 | 1007.7 |
| 20260503221224 | 65 | 354 | 3.5 | 3.5 | 0.00 | 0.00 | 0.00 | 34 | 1007.4 |
| 20260503220654 | 65 | 257 | 2.6 | 3.5 | 0.00 | 0.00 | 0.00 | 37 | 1007.4 |
| 20260503220044 | 65 | 273 | 2.6 | 5.2 | 0.00 | 0.00 | 0.00 | 36 | 1007.4 |
| 20260503215439 | 66 | 302 | 2.6 | 2.6 | 0.00 | 0.00 | 0.00 | 36 | 1007.4 |
| 20260503214810 | 65 | 294 | 1.7 | 1.7 | 0.00 | 0.00 | 0.00 | 36 | 1007.4 |
| 20260503214224 | 65 | 4 | 2.6 | 3.5 | 0.00 | 0.00 | 0.00 | 39 | 1007.4 |
| 20260503213647 | 65 | 310 | 0.9 | 1.7 | 0.00 | 0.00 | 0.00 | 34 | 1007.4 |
| 20260503212440 | 63 | 43 | 1.7 | 2.6 | 0.00 | 0.00 | 0.00 | 37 | 1007.7 |
| 20260503211827 | 63 | 12 | 1.7 | 2.6 | 0.00 | 0.00 | 0.00 | 35 | 1007.7 |
| 20260503211227 | 65 | 300 | 1.7 | 2.6 | 0.00 | 0.00 | 0.00 | 35 | 1007.4 |
| 20260503210647 | 65 | 353 | 1.7 | 1.7 | 0.00 | 0.00 | 0.00 | 35 | 1007.7 |
| 20260503210017 | 65 | 285 | 2.6 | 2.6 | 0.00 | 0.00 | 0.00 | 36 | 1007.7 |
| 20260503205430 | 64 | 282 | 3.5 | 5.2 | 0.00 | 0.00 | 0.00 | 36 | 1007.7 |
| 20260503204242 | 65 | 320 | 1.7 | 2.6 | 0.00 | 0.00 | 0.00 | 39 | 1007.7 |
| 20260503203038 | 65 | 303 | 3.5 | 3.5 | 0.00 | 0.00 | 0.00 | 39 | 1008.1 |
| 20260503202422 | 64 | 13 | 1.7 | 2.6 | 0.00 | 0.00 | 0.00 | 36 | 1008.1 |
| 20260503201816 | 67 | 297 | 1.7 | 2.6 | 0.00 | 0.00 | 0.00 | 37 | 1008.1 |
| 20260503201234 | 64 | 271 | 0.9 | 0.9 | 0.00 | 0.00 | 0.00 | 38 | 1008.4 |
| 20260503200625 | 64 | 287 | 1.7 | 2.6 | 0.00 | 0.00 | 0.00 | 38 | 1008.4 |
| 20260503200026 | 64 | 285 | 1.7 | 2.6 | 0.00 | 0.00 | 0.00 | 39 | 1008.8 |
| 20260503195409 | 63 | 293 | 2.6 | 2.6 | 0.00 | 0.00 | 0.00 | 37 | 1008.8 |
| 20260503194821 | 64 | 277 | 3.5 | 3.5 | 0.00 | 0.00 | 0.00 | 40 | 1008.8 |
| 20260503194241 | 63 | 274 | 2.6 | 2.6 | 0.00 | 0.00 | 0.00 | 40 | 1009.1 |
| 20260503193621 | 63 | 37 | 1.7 | 1.7 | 0.00 | 0.00 | 0.00 | 35 | 1009.1 |
| 20260503193043 | 63 | 344 | 2.6 | 2.6 | 0.00 | 0.00 | 0.00 | 37 | 1009.1 |
| 20260503192436 | 64 | 49 | 3.5 | 3.5 | 0.00 | 0.00 | 0.00 | 36 | 1009.1 |
| 20260503191842 | 63 | 340 | 5.2 | 7.0 | 0.00 | 0.00 | 0.00 | 37 | 1009.4 |
| 20260503191249 | 63 | 12 | 1.7 | 2.6 | 0.00 | 0.00 | 0.00 | 35 | 1009.4 |
| 20260503190636 | 63 | 354 | 2.6 | 2.6 | 0.00 | 0.00 | 0.00 | 39 | 1009.4 |
| 20260503190052 | 62 | 343 | 2.6 | 2.6 | 0.00 | 0.00 | 0.00 | 36 | 1009.4 |
| 20260503185423 | 63 | 6 | 2.6 | 3.5 | 0.00 | 0.00 | 0.00 | 37 | 1009.8 |
| 20260503184846 | 61 | 181 | 2.6 | 2.6 | 0.00 | 0.00 | 0.00 | 34 | 1010.1 |
| 20260503184216 | 62 | 343 | 3.5 | 3.5 | 0.00 | 0.00 | 0.00 | 38 | 1010.1 |
| 20260503183031 | 61 | 319 | 2.6 | 3.5 | 0.00 | 0.00 | 0.00 | 40 | 1010.1 |
| 20260503182446 | 62 | 289 | 0.9 | 0.9 | 0.00 | 0.00 | 0.00 | 46 | 1010.1 |
| 20260503181853 | 62 | 282 | 0.9 | 1.7 | 0.00 | 0.00 | 0.00 | 38 | 1010.4 |
| 20260503181236 | 61 | 0 | 2.6 | 3.5 | 0.00 | 0.00 | 0.00 | 38 | 1010.4 |
| 20260503180651 | 61 | 256 | 1.7 | 2.6 | 0.00 | 0.00 | 0.00 | 42 | 1010.8 |
| 20260503180026 | 61 | 338 | 2.6 | 2.6 | 0.00 | 0.00 | 0.00 | 39 | 1010.8 |
| 20260503175417 | 63 | 315 | 3.5 | 5.2 | 0.00 | 0.00 | 0.00 | 39 | 1010.8 |
| 20260503174820 | 63 | 244 | 0.0 | 0.0 | 0.00 | 0.00 | 0.00 | 40 | 1011.1 |
| 20260503174213 | 60 | 327 | 1.7 | 2.6 | 0.00 | 0.00 | 0.00 | 43 | 1010.8 |
| 20260503173628 | 60 | 306 | 0.9 | 1.7 | 0.00 | 0.00 | 0.00 | 43 | 1011.1 |
| 20260503173035 | 60 | 282 | 0.9 | 0.9 | 0.00 | 0.00 | 0.00 | 36 | 1011.1 |
| 20260503172413 | 60 | 226 | 1.7 | 1.7 | 0.00 | 0.00 | 0.00 | 38 | 1011.1 |
| 20260503171814 | 59 | 342 | 1.7 | 2.6 | 0.00 | 0.00 | 0.00 | 46 | 1011.1 |
| 20260503171254 | 60 | 266 | 5.2 | 7.0 | 0.00 | 0.00 | 0.00 | 46 | 1011.5 |
| 20260503150630 | 53 | 256 | 2.6 | 2.6 | 0.00 | 0.00 | 0.00 | 49 | 1012.5 |
| 20260503130620 | 39 | 312 | 0.0 | 0.0 | 0.00 | 0.00 | 0.00 | 99 | 1012.8 |
| 20260503110645 | 30 | 286 | 0.0 | 0.0 | 0.00 | 0.00 | 0.00 | 99 | 1011.8 |
| 20260503081246 | 32 | 273 | 0.0 | 0.0 | 0.00 | 0.00 | 0.00 | 98 | 1010.8 |
| 20260503072411 | 32 | 270 | 0.0 | 0.0 | 0.00 | 0.00 | 0.00 | 98 | 1010.4 |
| 20260503071838 | 32 | 279 | 0.0 | 0.0 | 0.00 | 0.00 | 0.00 | 98 | 1010.4 |
| 20260503071227 | 32 | 273 | 0.0 | 0.0 | 0.00 | 0.00 | 0.00 | 98 | 1010.4 |
| 20260503070623 | 32 | 276 | 0.0 | 0.0 | 0.00 | 0.00 | 0.00 | 97 | 1010.4 |
| 20260503054237 | 34 | 266 | 0.0 | 0.0 | 0.00 | 0.00 | 0.00 | 95 | 1010.4 |
| 20260503053623 | 34 | 273 | 0.0 | 0.0 | 0.00 | 0.00 | 0.00 | 95 | 1010.4 |
| 20260503053051 | 35 | 273 | 0.0 | 0.0 | 0.00 | 0.00 | 0.00 | 95 | 1010.4 |
| 20260503052424 | 35 | 276 | 0.0 | 0.0 | 0.00 | 0.00 | 0.00 | 95 | 1010.4 |
| 20260503051854 | 35 | 281 | 0.0 | 0.0 | 0.00 | 0.00 | 0.00 | 94 | 1010.4 |
| 20260503051244 | 35 | 276 | 0.0 | 0.0 | 0.00 | 0.00 | 0.00 | 94 | 1010.4 |
| 20260503050649 | 35 | 275 | 0.0 | 0.0 | 0.00 | 0.00 | 0.00 | 94 | 1010.4 |
| 20260503050053 | 35 | 268 | 0.0 | 0.0 | 0.00 | 0.00 | 0.00 | 94 | 1010.4 |
| 20260503045418 | 36 | 268 | 0.0 | 0.0 | 0.00 | 0.00 | 0.00 | 93 | 1010.4 |
| 20260503044845 | 36 | 268 | 0.0 | 0.0 | 0.00 | 0.00 | 0.00 | 93 | 1010.4 |
| 20260503044242 | 36 | 273 | 0.0 | 0.0 | 0.00 | 0.00 | 0.00 | 93 | 1010.4 |
| 20260503043639 | 36 | 281 | 0.0 | 0.0 | 0.00 | 0.00 | 0.00 | 92 | 1010.1 |
| 20260503043016 | 36 | 287 | 0.0 | 0.0 | 0.00 | 0.00 | 0.00 | 92 | 1010.4 |
| 20260503042443 | 36 | 232 | 0.0 | 0.0 | 0.00 | 0.00 | 0.00 | 91 | 1010.1 |
| 20260503041823 | 36 | 278 | 0.0 | 0.0 | 0.00 | 0.00 | 0.00 | 91 | 1010.4 |
| 20260503040623 | 37 | 276 | 0.0 | 0.0 | 0.00 | 0.00 | 0.00 | 90 | 1010.4 |
| 20260503040047 | 37 | 285 | 0.0 | 0.0 | 0.00 | 0.00 | 0.00 | 89 | 1010.1 |
| 20260503035451 | 38 | 287 | 0.0 | 0.0 | 0.00 | 0.00 | 0.00 | 88 | 1010.4 |
| 20260503034851 | 38 | 274 | 0.0 | 0.0 | 0.00 | 0.00 | 0.00 | 87 | 1010.1 |
| 20260503034216 | 38 | 264 | 0.0 | 0.0 | 0.00 | 0.00 | 0.00 | 87 | 1010.1 |
| 20260503033638 | 38 | 268 | 0.0 | 0.0 | 0.00 | 0.00 | 0.00 | 86 | 1010.1 |
| 20260503032419 | 39 | 259 | 0.0 | 0.0 | 0.00 | 0.00 | 0.00 | 84 | 1010.1 |
| 20260503031839 | 39 | 257 | 0.0 | 0.0 | 0.00 | 0.00 | 0.00 | 84 | 1010.1 |
| 20260503031244 | 39 | 252 | 0.0 | 0.0 | 0.00 | 0.00 | 0.00 | 84 | 1009.8 |
| 20260503030642 | 40 | 254 | 0.0 | 0.0 | 0.00 | 0.00 | 0.00 | 84 | 1010.1 |
| 20260503030024 | 40 | 254 | 0.0 | 0.0 | 0.00 | 0.00 | 0.00 | 83 | 1010.1 |
| 20260503025424 | 40 | 260 | 0.0 | 0.0 | 0.00 | 0.00 | 0.00 | 82 | 1010.1 |
| 20260503024829 | 40 | 252 | 0.0 | 0.0 | 0.00 | 0.00 | 0.00 | 82 | 1009.8 |
| 20260503024233 | 41 | 253 | 0.0 | 0.0 | 0.00 | 0.00 | 0.00 | 81 | 1009.8 |
| 20260503023618 | 41 | 241 | 0.0 | 0.0 | 0.00 | 0.00 | 0.00 | 80 | 1009.8 |
| 20260503023036 | 41 | 246 | 0.0 | 0.0 | 0.00 | 0.00 | 0.00 | 80 | 1009.8 |
| 20260503022451 | 41 | 254 | 0.0 | 0.0 | 0.00 | 0.00 | 0.00 | 80 | 1009.8 |
| 20260503021851 | 42 | 248 | 0.0 | 0.0 | 0.00 | 0.00 | 0.00 | 78 | 1009.8 |
| 20260503021241 | 42 | 250 | 0.0 | 0.0 | 0.00 | 0.00 | 0.00 | 78 | 1009.4 |
| 20260503020644 | 42 | 265 | 0.0 | 0.0 | 0.00 | 0.00 | 0.00 | 78 | 1009.4 |
| 20260503020048 | 42 | 255 | 0.0 | 0.0 | 0.00 | 0.00 | 0.00 | 77 | 1009.4 |
| 20260503014817 | 43 | 253 | 0.0 | 0.0 | 0.00 | 0.00 | 0.00 | 76 | 1009.1 |
| 20260503014252 | 43 | 255 | 0.0 | 0.0 | 0.00 | 0.00 | 0.00 | 76 | 1009.1 |
| 20260503013626 | 43 | 249 | 0.0 | 0.0 | 0.00 | 0.00 | 0.00 | 76 | 1009.1 |
| 20260503013014 | 43 | 252 | 0.0 | 0.0 | 0.00 | 0.00 | 0.00 | 75 | 1009.1 |
| 20260503011811 | 44 | 263 | 0.0 | 0.0 | 0.00 | 0.00 | 0.00 | 73 | 1009.1 |
| 20260503011231 | 44 | 258 | 0.0 | 0.0 | 0.00 | 0.00 | 0.00 | 73 | 1009.1 |
| 20260503010623 | 44 | 247 | 0.0 | 0.0 | 0.00 | 0.00 | 0.00 | 72 | 1008.8 |
| 20260503010028 | 45 | 257 | 0.0 | 0.0 | 0.00 | 0.00 | 0.00 | 72 | 1008.8 |
| 20260503005413 | 45 | 262 | 0.0 | 0.0 | 0.00 | 0.00 | 0.00 | 71 | 1008.8 |
| 20260503004843 | 46 | 292 | 0.0 | 0.0 | 0.00 | 0.00 | 0.00 | 68 | 1008.8 |
| 20260503004211 | 47 | 303 | 0.0 | 0.0 | 0.00 | 0.00 | 0.00 | 66 | 1008.8 |
| 20260503003641 | 48 | 263 | 0.0 | 0.0 | 0.00 | 0.00 | 0.00 | 65 | 1008.4 |
| 20260503003018 | 49 | 263 | 0.0 | 0.0 | 0.00 | 0.00 | 0.00 | 61 | 1008.4 |
| 20260503001815 | 50 | 310 | 0.0 | 0.0 | 0.00 | 0.00 | 0.00 | 58 | 1008.1 |
| 20260503001232 | 50 | 261 | 0.0 | 0.0 | 0.00 | 0.00 | 0.00 | 56 | 1008.1 |
| 20260503000048 | 52 | 175 | 2.6 | 3.5 | 0.00 | 0.00 | 0.00 | 47 | 1008.1 |
| 20260502235410 | 53 | 229 | 3.5 | 3.5 | 0.00 | 0.00 | 0.00 | 47 | 1008.1 |
| 20260502234841 | 53 | 243 | 2.6 | 2.6 | 0.00 | 0.00 | 0.00 | 46 | 1008.1 |
| 20260502234245 | 53 | 237 | 3.5 | 5.2 | 0.00 | 0.00 | 0.00 | 47 | 1008.1 |
| 20260502233641 | 54 | 290 | 3.5 | 3.5 | 0.00 | 0.00 | 0.00 | 47 | 1007.7 |
| 20260502232429 | 54 | 218 | 5.2 | 6.1 | 0.00 | 0.00 | 0.00 | 45 | 1007.7 |
| 20260502231840 | 54 | 123 | 3.5 | 5.2 | 0.00 | 0.00 | 0.00 | 45 | 1007.7 |
| 20260502231212 | 54 | 201 | 3.5 | 5.2 | 0.00 | 0.00 | 0.00 | 45 | 1007.4 |
| 20260502230630 | 55 | 241 | 1.7 | 1.7 | 0.00 | 0.00 | 0.00 | 45 | 1007.4 |
| 20260502230040 | 55 | 4 | 6.1 | 9.6 | 0.00 | 0.00 | 0.00 | 43 | 1007.4 |